Location: Bretagne
(43.8474°N, 0.4650°W)
Time: 04:04:33
(UTC+00:00)

USA 276 - Visible Passes

Search period start: 21 April 2026 00:00
Search period end: 01 May 2026 00:00
Orbit: 366 x 369 km, 50.0° (Epoch: 12 July)

Date Brightness Start Highest point End Pass type
(mag) Time Alt. Az. Time Alt. Az. Time Alt. Az.
21 Apr 0.5 04:34:31 10° WNW 04:36:10 87° NE 04:38:04 10° ESE visible
22 Apr 0.4 04:19:13 13° WNW 04:20:35 63° SSW 04:22:25 10° SE visible
23 Apr 0.8 04:04:51 39° SW 04:05:00 40° SSW 04:06:42 10° SE visible
24 Apr 3.4 03:50:45 11° SSE 03:50:45 11° SSE 03:50:53 10° SSE visible
29 Apr 1.1 20:02:38 10° WSW 20:03:25 34° WNW 20:03:25 34° WNW visible
30 Apr 1.4 19:46:51 10° W 19:47:50 29° NNW 19:48:47 10° NE visible
